Regional Weather Roundup
Issued by NWS

Home | Current Version | Previous Version | Graphics & Text | Print | Product List | Glossary On
Versions: 1 2 3 4 5 6 7 8 9 10 11 12 13 14 15 16 17 18 19 20 21 22 23 24 25 26 27 28 29 30 31 32 33 34 35 36 37 38 39 40 41 42 43 44 45 46 47 48 49 50
000
ASUS43 KLSX 181457
RWRMO

WEATHER SUMMARY FOR MISSOURI
NATIONAL WEATHER SERVICE SPRINGFIELD MO
900 AM CST SAT NOV 18 2017

NOTE: "FAIR" INDICATES FEW OR NO CLOUDS BELOW 12,000 FEET WITH NO
       SIGNIFICANT WEATHER AND/OR OBSTRUCTIONS TO VISIBILITY.
       CURRENT SKY AND/OR WEATHER CONDITIONS ARE NOT AVAILABLE FOR
       CHILLICOTHE AND FARMINGTON.

MOZ001>031-035>038-043-044-053-054-181600-
...NORTHERN AND WESTERN MISSOURI...

CITY           SKY/WX    TMP DP  RH WIND       PRES   REMARKS
KANSAS CTY INT LGT RAIN  42  41  96 N17G31    29.75R
LEE`S SUMMIT   LGT RAIN  42  40  92 N30       29.72R
ST JOSEPH      CLOUDY    42  40  92 NW21      29.79R FOG
CHILLICOTHE      N/A     42  40  92 N12G22    29.68R

$$
MOZ066>068-077>081-088>096-101>105-181600-
...SOUTHWEST MISSOURI...

CITY           SKY/WX    TMP DP  RH WIND       PRES   REMARKS
SPRINGFIELD    LGT RAIN  57  56  96 NW16G28   29.57R FOG
JOPLIN         LGT RAIN  48  48 100 NW23G40   29.73R FOG
BRANSON        PTSUNNY   64  52  63 NW17G40   29.57R

$$
MOZ032>034-039>042-045>050-055>058-069>072-181600-
...CENTRAL MISSOURI...

CITY           SKY/WX    TMP DP  RH WIND       PRES   REMARKS
COLUMBIA       NOT AVBL
JEFFERSON CITY CLOUDY    51  45  79 N22G31    29.52R
ROLLA          CLOUDY    69  60  73 W16G24    29.41R
SEDALIA        LGT RAIN  46  45  96 N25G36    29.63R
WHITEMAN AFB   LGT RAIN  45  43  93 N22G32    29.59R
WARRENSBURG    CLOUDY    43  39  87 NW17G30   29.67R

$$
MOZ051-052-059>065-181600-
...EAST CENTRAL MISSOURI...

CITY           SKY/WX    TMP DP  RH WIND       PRES   REMARKS
ST LOUIS INTL  LGT RAIN  70  63  78 SW13      29.34R

$$
MOZ072>076-082>087-097>100-106>115-181600-
...SOUTH CENTRAL AND SOUTHEAST MISSOURI...

CITY           SKY/WX    TMP DP  RH WIND       PRES   REMARKS
CAPE GIRARDEAU NOT AVBL
POPLAR BLUFF   CLOUDY    68  63  84 SW18G30   29.48F
WEST PLAINS    PTSUNNY   72  62  71 SW20      29.49S

$$



USA.gov is the U.S. government's official web portal to all federal, state and local government web resources and services.